Simultaneous Nadir Overpasses (SNOs) Predictions

Prediction of SNOs between AQUA and GOES-15 Satellite Orbit:

Table of predicted SNOs for the next 14.0 days since TLE Epoch: 1/14/2022
Index Date Time (AQUA) AQUA Lat,Lon GOES-15 Lat,Lon Distance(km) Time Diff (sec)
1 01/16/2022 10:07:55 -0.11,-127.91 -0.04,-128.35 49.66 80
2 01/18/2022 09:55:44 -0.79,-124.96 -0.04,-128.36 387.05 80
3 01/18/2022 22:17:08 -0.32,-130.15 0.04,-128.36 203.10 80
4 01/20/2022 22:04:56 0.31,-127.18 0.04,-128.36 133.95 80
5 01/21/2022 10:26:11 0.82,-132.33 -0.04,-128.36 452.14 80
6 01/22/2022 21:52:44 0.94,-124.22 0.04,-128.35 470.69 80
7 01/23/2022 10:13:59 0.19,-129.37 -0.05,-128.35 115.54 80
8 01/25/2022 10:01:47 -0.46,-126.40 -0.04,-128.35 220.65 80
9 01/25/2022 22:23:11 -0.63,-131.60 0.04,-128.34 370.05 80
10 01/27/2022 22:10:58 -0.03,-128.62 0.03,-128.32 34.69 80
